Regional Weather Roundup
Issued by NWS Northern Indiana

Home | Current Version | Previous Version | Graphics & Text | Print | Product List | Glossary On
Versions: 1 2 3 4 5 6 7 8 9 10 11 12 13 14 15 16 17 18 19 20 21 22 23 24 25 26 27 28 29 30 31 32 33 34 35 36 37 38 39 40 41 42 43 44 45 46 47 48 49 50
000
ASUS43 KIWX 230500
RWRIWX

KIWX WEATHER ROUNDUP
NATIONAL WEATHER SERVICE NORTHERN INDIANA
1200 AM EST THU FEB 23 2017

NOTE: "FAIR" INDICATES FEW OR NO CLOUDS BELOW 12,000 FEET WITH NO
SIGNIFICANT WEATHER AND/OR OBSTRUCTIONS TO VISIBILITY.

* THESE STATIONS ARE NOT UNDER NWS QUALITY CONTROL. THEY ALSO MAY NOT
  REPORT WEATHER SUCH AS PRECIPITATION OR FOG.

INZ001>027-230600-
NORTHERN INDIANA

CITY           SKY/WX    TMP DP  RH WIND       PRES   REMARKS
GARY*          CLEAR     60  54  78 SW6       29.64S
MICHIGAN CITY* CLEAR     55  54  94 S13G18    29.65S
KNOX*          PTCLDY    55  37  50 S12       29.67S
SOUTH BEND     CLEAR     57  53  86 SW14      29.66F
GOSHEN         MOCLDY    57  51  80 S13       29.68F
MONTICELLO*    CLEAR     57  53  84 S10       29.70S
WARSAW*        CLEAR     54  52  94 CALM      29.70S
ANGOLA*        MOCLDY    55  46  71 S8        29.69F
FORT WAYNE     PTCLDY    55  52  89 S9        29.72S
PERU/GRISSOM   CLEAR     55  55 100 S8        29.71R

$$
INZ028>050-230600-
CENTRAL INDIANA

CITY           SKY/WX    TMP DP  RH WIND       PRES   REMARKS
LAFAYETTE      CLEAR     57  53  86 SW6       29.71R
KOKOMO*        CLEAR     54  52  93 S7        29.73S
MUNCIE*        CLEAR     59  54  83 SW8       29.74R
INDIANAPOLIS   PTCLDY    58  53  84 S9        29.74R

$$
MIZ043>046-050>051-056>058-064>065-071>073-077>080-230600-
SOUTHWEST LOWER MICHIGAN

CITY           SKY/WX    TMP DP  RH WIND       PRES   REMARKS
BATTLE CREEK   PTCLDY    56  53  90 S15       29.65F
BENTON HARBOR  CLEAR     59  53  80 S10       29.62F
COLDWATER*     PTCLDY    56  54  91 S7        29.67F
HILLSDALE*     MOCLDY    54  52  94 S7        29.69S FOG
HOLLAND        CLEAR     61  54  77 SW25G33   29.59F
GRAND RAPIDS   PTCLDY    56  51  84 S12       29.60F
KALAMAZOO      PTCLDY    55  50  83 S12       29.64F
STURGIS*       MOCLDY    55  53  93 S13       29.67F
THREE RIVERS*  FAIR      54  52  92 S10       29.66F

$$
OHZ001>008-015>018-024>025-230600-
NORTHWEST OHIO

CITY           SKY/WX    TMP DP  RH WIND       PRES   REMARKS
DEFIANCE       CLEAR     55  52  89 S10       29.71F
FINDLAY        CLEAR     55  51  86 S10       29.72F FOG
TOLEDO EXPRESS PTCLDY    56  55  97 S10       29.70F
TOLEDO METCALF CLEAR     57  55  93 S12       29.72S FOG
LIMA           CLEAR     56  55  97 S9        29.74F

$$
AND FOR LAKE MICHIGAN COASTAL AND OPEN LAKE BUOY OBSERVATIONS

STATION/POSITION TEMP    WIND        PRES    VSBY  WAVE
                 AIR SEA DIR/SP/G                  HT/PER
                 (F)     (DEG/KT/KT) (MB)    (MI)  (FT/S)
CALUMET HARBOR    59     200/  9/ 14 1003.1R
MICHIGAN CITY     59     170/ 16/ 18   N/A
BURNS HARBOR      58     200/ 20/ 24 1003.7F

$$
&&




USA.gov is the U.S. government's official web portal to all federal, state and local government web resources and services.